Hourly Data Report for July 03, 2021

BORDEN AWOS
ONTARIO
Current Station Operator: DND

44°16'20.000" N
79°54'42.000" W
222.50 m
611B002
71534
YBN

Download Data

Hourly Data (July 2021)
Hourly Data Report for July 3, 2021
TIME
LST
Temp Definition
°C
Dew Point Definition
°C
Rel Hum Definition
%
Precip. Amount Definition
mm

Wind Dir Definition
10's deg

Wind Spd Definition
km/h
Visibility Definition
km
Stn Press Definition
kPa
Hmdx Definition


Wind Chill Definition


Weather Definition


00:00 14.1 13.0 93   29 4 14.5 98.60     LegendNANA
01:00 11.8 11.6 99   20 4 14.5 98.56     LegendNANA
02:00 11.6 11.6 100     0 14.5 98.57     LegendNANA
03:00 10.8 10.7 99     0 14.5 98.55     LegendNANA
04:00 10.3 10.3 100     0 3.4 98.58     LegendNANA
05:00 10.0 10.0 100     0 14.5 98.61     LegendNANA
06:00 12.3 12.2 99     0 14.5 98.56     LegendNANA
07:00 14.1 13.4 96   32 4 14.5 98.66     LegendNANA
08:00 15.9 14.2 90     0 14.5 98.62     LegendNANA
09:00 17.4 13.9 80     0 14.5 98.59     LegendNANA
10:00 19.1 14.4 74     0 14.5 98.57     LegendNANA
11:00 22.0 14.3 62   35 6 14.5 98.49 26   LegendNANA
12:00 22.7 13.6 56   23 6 14.5 98.43 26   LegendNANA
13:00 24.6 14.6 54   32 11 14.5 98.39 28   LegendNANA
14:00 24.3 10.6 42   23 6 14.5 98.35 26   LegendNANA
15:00 25.1 12.1 44   1 4 14.5 98.30 27   LegendNANA
16:00 24.7 13.7 50   33 9 14.5 98.27 28   LegendNANA
17:00 24.5 14.3 53   35 7 14.5 98.27 28   LegendNANA
18:00 23.4 14.7 58   36 7 14.5 98.27 27   LegendNANA
19:00 22.2 13.6 58   36 4 14.5 98.34 25   LegendNANA
20:00 19.1 13.1 68   33 7 14.5 98.39     LegendNANA
21:00 18.1 13.5 75   27 4 14.5 98.44     LegendNANA
22:00 15.7 13.5 87   29 6 14.5 98.44     LegendNANA
23:00 13.7 12.6 93     0 14.5 98.45     LegendNANA

Notes on Data Quality.

Legend

  • E = Estimated
  • M = Missing
  • NA = Not Available*
  • [empty] = Indicates an unobserved value
Date modified: